| time (UTC) | temp F | wind direction | speed knots | gust knots | rain 1hr in | rain 24hr in | rain mn in | humidity % | barometer mb |
| 20260507001552 | 75 | 88 | 0.0 | 1.7 | 0.00 | 0.00 | 0.00 | 82 | 993.9 |
| 20260507000049 | 76 | 103 | 0.0 | 4.3 | 0.00 | 0.00 | 0.00 | 82 | 993.7 |
| 20260506234548 | 76 | 149 | 0.0 | 6.1 | 0.00 | 0.00 | 0.00 | 82 | 993.6 |
| 20260506233055 | 76 | 92 | 0.0 | 4.3 | 0.00 | 0.00 | 0.00 | 81 | 993.8 |
| 20260506231547 | 77 | 69 | 0.0 | 6.1 | 0.00 | 0.00 | 0.00 | 81 | 993.7 |
| 20260506230045 | 77 | 69 | 0.0 | 7.8 | 0.00 | 0.00 | 0.00 | 81 | 993.8 |
| 20260506224544 | 77 | 158 | 0.0 | 7.8 | 0.00 | 0.00 | 0.00 | 80 | 993.9 |
| 20260506223044 | 78 | 116 | 0.0 | 7.0 | 0.00 | 0.00 | 0.00 | 81 | 994.1 |
| 20260506221543 | 78 | 207 | 0.0 | 6.1 | 0.00 | 0.00 | 0.00 | 81 | 994.0 |
| 20260506220047 | 78 | 250 | 0.9 | 9.6 | 0.00 | 0.00 | 0.00 | 80 | 993.9 |
| 20260506214549 | 79 | 139 | 0.0 | 0.9 | 0.00 | 0.00 | 0.00 | 78 | 994.0 |
| 20260506213040 | 80 | 108 | 0.0 | 1.7 | 0.00 | 0.00 | 0.00 | 79 | 994.0 |
| 20260506211539 | 79 | 174 | 0.0 | 2.6 | 0.00 | 0.00 | 0.00 | 79 | 994.1 |
| 20260506210039 | 80 | 133 | 0.0 | 7.0 | 0.00 | 0.00 | 0.00 | 78 | 994.2 |
| 20260506204543 | 80 | 32 | 0.0 | 2.6 | 0.00 | 0.00 | 0.00 | 78 | 994.2 |
| 20260506203037 | 81 | 124 | 0.0 | 0.9 | 0.00 | 0.00 | 0.00 | 78 | 994.3 |
| 20260506201535 | 81 | 101 | 0.0 | 3.5 | 0.00 | 0.00 | 0.00 | 77 | 994.4 |
| 20260506200033 | 82 | 233 | 0.0 | 0.9 | 0.00 | 0.00 | 0.00 | 76 | 994.7 |
| 20260506194531 | 81 | 53 | 0.0 | 4.3 | 0.00 | 0.00 | 0.00 | 78 | 994.8 |
| 20260506193030 | 81 | 104 | 0.0 | 1.7 | 0.00 | 0.00 | 0.00 | 77 | 995.2 |
| 20260506191529 | 81 | 85 | 0.0 | 7.0 | 0.00 | 0.00 | 0.00 | 77 | 995.3 |
| 20260506190028 | 80 | 86 | 0.0 | 1.7 | 0.00 | 0.00 | 0.00 | 76 | 995.4 |
| 20260506184527 | 81 | 106 | 0.0 | 7.8 | 0.00 | 0.00 | 0.00 | 75 | 995.6 |
| 20260506183028 | 81 | 181 | 0.0 | 7.8 | 0.00 | 0.00 | 0.00 | 75 | 995.8 |
| 20260506181526 | 81 | 91 | 0.0 | 0.9 | 0.00 | 0.00 | 0.00 | 75 | 995.9 |
| 20260506180025 | 81 | 77 | 0.0 | 2.6 | 0.00 | 0.00 | 0.00 | 74 | 995.9 |
| 20260506174524 | 81 | 84 | 0.0 | 7.0 | 0.00 | 0.00 | 0.00 | 72 | 996.1 |
| 20260506173023 | 81 | 291 | 0.0 | 1.7 | 0.00 | 0.00 | 0.00 | 73 | 996.3 |
| 20260506171524 | 81 | 126 | 0.0 | 5.2 | 0.00 | 0.00 | 0.00 | 72 | 996.5 |
| 20260506170023 | 80 | 244 | 0.0 | 7.8 | 0.00 | 0.00 | 0.00 | 72 | 996.6 |
| 20260506164522 | 80 | 89 | 0.0 | 7.0 | 0.00 | 0.00 | 0.00 | 72 | 996.8 |
| 20260506163020 | 81 | 87 | 0.0 | 3.5 | 0.00 | 0.00 | 0.00 | 73 | 996.6 |
| 20260506161519 | 80 | 71 | 0.0 | 7.8 | 0.00 | 0.00 | 0.00 | 73 | 997.0 |
| 20260506160018 | 81 | 74 | 0.0 | 4.3 | 0.00 | 0.00 | 0.00 | 71 | 997.0 |
| 20260506154517 | 82 | 93 | 0.0 | 5.2 | 0.00 | 0.00 | 0.00 | 68 | 996.9 |
| 20260506153017 | 81 | 85 | 0.0 | 2.6 | 0.00 | 0.00 | 0.00 | 69 | 996.9 |
| 20260506151516 | 80 | 84 | 0.0 | 0.9 | 0.00 | 0.00 | 0.00 | 71 | 997.0 |
| 20260506150016 | 82 | 71 | 0.0 | 1.7 | 0.00 | 0.00 | 0.00 | 65 | 996.9 |
| 20260506144518 | 81 | 267 | 0.0 | 2.6 | 0.00 | 0.00 | 0.00 | 60 | 996.7 |
| 20260506143009 | 80 | 248 | 0.0 | 0.0 | 0.00 | 0.00 | 0.00 | 62 | 996.7 |
| 20260506141507 | 80 | 252 | 0.0 | 2.6 | 0.00 | 0.00 | 0.00 | 64 | 996.6 |
| 20260506140004 | 78 | 245 | 0.0 | 1.7 | 0.00 | 0.00 | 0.00 | 66 | 996.7 |
| 20260506134604 | 78 | 264 | 0.0 | 0.9 | 0.00 | 0.00 | 0.00 | 69 | 996.6 |
| 20260506133101 | 77 | 306 | 0.0 | 1.7 | 0.00 | 0.00 | 0.00 | 70 | 996.6 |
| 20260506131556 | 76 | 266 | 0.0 | 1.7 | 0.00 | 0.00 | 0.00 | 71 | 996.6 |
| 20260506130052 | 75 | 245 | 0.0 | 1.7 | 0.00 | 0.00 | 0.00 | 73 | 996.6 |
| 20260506124547 | 74 | 274 | 0.0 | 1.7 | 0.00 | 0.00 | 0.00 | 75 | 996.4 |
| 20260506123044 | 72 | 233 | 0.0 | 0.0 | 0.00 | 0.00 | 0.00 | 77 | 996.3 |
| 20260506121541 | 70 | 258 | 0.0 | 0.9 | 0.00 | 0.00 | 0.00 | 79 | 996.2 |
| 20260506120041 | 69 | 260 | 0.0 | 0.0 | 0.00 | 0.00 | 0.00 | 80 | 996.1 |
| 20260506114540 | 68 | 255 | 0.0 | 0.9 | 0.00 | 0.00 | 0.00 | 81 | 996.1 |
| 20260506113040 | 67 | 253 | 0.0 | 0.0 | 0.00 | 0.00 | 0.00 | 81 | 995.8 |
| 20260506111538 | 67 | 252 | 0.0 | 0.0 | 0.00 | 0.00 | 0.00 | 82 | 995.7 |
| 20260506110039 | 66 | 252 | 0.0 | 0.0 | 0.00 | 0.00 | 0.00 | 81 | 995.7 |
| 20260506104539 | 66 | 257 | 0.0 | 0.0 | 0.00 | 0.00 | 0.00 | 81 | 995.6 |
| 20260506103037 | 66 | 262 | 0.0 | 0.0 | 0.00 | 0.00 | 0.00 | 81 | 995.3 |
| 20260506101536 | 66 | 268 | 0.0 | 1.7 | 0.00 | 0.00 | 0.00 | 80 | 995.4 |
| 20260506100034 | 66 | 269 | 0.0 | 0.0 | 0.00 | 0.00 | 0.00 | 80 | 995.4 |
| 20260506094533 | 66 | 264 | 0.0 | 0.0 | 0.00 | 0.00 | 0.00 | 79 | 995.5 |
| 20260506093038 | 67 | 262 | 0.0 | 0.0 | 0.00 | 0.00 | 0.00 | 78 | 995.2 |
| 20260506091532 | 67 | 250 | 0.0 | 0.0 | 0.00 | 0.00 | 0.00 | 77 | 995.0 |
| 20260506090028 | 67 | 263 | 0.0 | 0.0 | 0.00 | 0.00 | 0.00 | 77 | 995.1 |
| 20260506084535 | 67 | 245 | 0.0 | 0.0 | 0.00 | 0.00 | 0.00 | 76 | 995.0 |
| 20260506083028 | 67 | 256 | 0.0 | 0.0 | 0.00 | 0.00 | 0.00 | 76 | 995.0 |
| 20260506081527 | 67 | 256 | 0.0 | 0.0 | 0.00 | 0.00 | 0.00 | 75 | 995.2 |
| 20260506073024 | 67 | 261 | 0.0 | 0.0 | 0.00 | 0.00 | 0.00 | 75 | 994.9 |
| 20260506071522 | 67 | 261 | 0.0 | 0.0 | 0.00 | 0.00 | 0.00 | 76 | 995.1 |
| 20260506061524 | 67 | 258 | 0.0 | 0.0 | 0.00 | 0.00 | 0.00 | 76 | 995.6 |
| 20260506044510 | 69 | 271 | 0.0 | 0.0 | 0.00 | 0.00 | 0.00 | 75 | 996.1 |
| 20260506043004 | 69 | 271 | 0.0 | 0.0 | 0.00 | 0.00 | 0.00 | 75 | 996.1 |
| 20260506041601 | 70 | 271 | 0.0 | 0.0 | 0.00 | 0.00 | 0.00 | 74 | 996.3 |
| 20260506040057 | 71 | 271 | 0.0 | 0.0 | 0.00 | 0.00 | 0.00 | 73 | 996.3 |
| 20260506034603 | 72 | 271 | 0.0 | 0.0 | 0.00 | 0.00 | 0.00 | 72 | 996.2 |
| 20260506033114 | 73 | 110 | 0.0 | 0.9 | 0.00 | 0.00 | 0.00 | 73 | 996.2 |
| 20260506031555 | 73 | 110 | 0.0 | 0.9 | 0.00 | 0.00 | 0.00 | 72 | 996.2 |
| 20260506024610 | 73 | 84 | 0.0 | 6.1 | 0.00 | 0.00 | 0.00 | 67 | 995.6 |
| 20260506023102 | 73 | 58 | 0.0 | 7.0 | 0.00 | 0.00 | 0.00 | 66 | 995.7 |
| 20260506021558 | 73 | 98 | 0.0 | 2.6 | 0.00 | 0.00 | 0.00 | 64 | 995.5 |
| 20260506020052 | 73 | 95 | 0.0 | 6.1 | 0.00 | 0.00 | 0.00 | 63 | 995.5 |
| 20260506014551 | 73 | 90 | 0.0 | 3.5 | 0.00 | 0.00 | 0.00 | 64 | 995.5 |
| 20260506013057 | 73 | 79 | 0.0 | 1.7 | 0.00 | 0.00 | 0.00 | 64 | 995.5 |
| 20260506011612 | 73 | 65 | 0.0 | 5.2 | 0.00 | 0.00 | 0.00 | 64 | 995.4 |
| 20260506010051 | 73 | 98 | 0.0 | 2.6 | 0.00 | 0.00 | 0.00 | 64 | 995.3 |
| 20260506004549 | 73 | 95 | 0.0 | 2.6 | 0.00 | 0.00 | 0.00 | 65 | 995.4 |
| 20260506003048 | 73 | 93 | 0.0 | 0.9 | 0.00 | 0.00 | 0.00 | 64 | 995.3 |